Time,TemperatureF,DewpointF,PressureIn,WindDirection,WindDirectionDegrees,WindSpeedMPH,WindSpeedGustMPH,Humidity,HourlyPrecipIn,Conditions,Clouds,dailyrainin,SoftwareType,DateUTC
2013-05-07 00:01:00,59.2,56.5,30.00,SSE,158,0.0,8.0,91,0.00,,,0.01,meteohub,2013-05-07 04:01:00,
2013-05-07 00:02:00,59.2,56.5,30.00,NNW,331,0.0,8.0,91,0.00,,,0.01,meteohub,2013-05-07 04:02:00,
2013-05-07 00:07:00,59.2,56.5,29.99,ENE,68,4.0,8.0,91,0.00,,,0.00,meteohub,2013-05-07 04:07:00,
2013-05-07 00:12:00,59.0,56.7,29.99,NNE,26,2.0,8.0,92,0.00,,,0.00,meteohub,2013-05-07 04:12:00,
2013-05-07 00:17:00,59.2,56.8,29.99,SE,136,2.0,8.0,92,0.00,,,0.00,meteohub,2013-05-07 04:17:00,
2013-05-07 00:22:00,59.0,56.7,29.99,NNE,27,1.0,8.0,92,0.00,,,0.00,meteohub,2013-05-07 04:22:00,
2013-05-07 00:27:00,58.8,56.5,29.99,NNE,16,1.0,7.0,92,0.00,,,0.00,meteohub,2013-05-07 04:27:00,
2013-05-07 00:32:00,58.8,56.5,29.99,NNE,16,0.0,7.0,92,0.00,,,0.00,meteohub,2013-05-07 04:32:00,
2013-05-07 00:37:00,58.8,56.5,29.99,SW,226,3.0,7.0,92,0.00,,,0.00,meteohub,2013-05-07 04:37:00,
2013-05-07 00:42:00,58.8,56.5,29.99,SSW,194,1.0,6.0,92,0.00,,,0.00,meteohub,2013-05-07 04:42:00,
2013-05-07 00:47:00,58.8,56.5,29.99,SE,134,1.0,6.0,92,0.00,,,0.00,meteohub,2013-05-07 04:47:00,
2013-05-07 00:52:00,58.8,56.8,29.99,NNE,16,0.0,6.0,93,0.00,,,0.00,meteohub,2013-05-07 04:52:00,
2013-05-07 00:57:00,58.8,56.8,29.99,NNE,16,1.0,3.0,93,0.00,,,0.00,meteohub,2013-05-07 04:57:00,
2013-05-07 01:02:00,58.8,56.8,29.99,NNE,23,1.0,8.0,93,0.00,,,0.00,meteohub,2013-05-07 05:02:00,
2013-05-07 01:07:00,58.6,56.7,29.99,North,8,1.0,8.0,93,0.00,,,0.00,meteohub,2013-05-07 05:07:00,
2013-05-07 01:12:00,58.6,56.7,29.98,NE,49,2.0,6.0,93,0.00,,,0.00,meteohub,2013-05-07 05:12:00,
2013-05-07 01:17:00,58.5,56.5,29.98,NNE,25,3.0,7.0,93,0.00,,,0.00,meteohub,2013-05-07 05:17:00,
2013-05-07 01:22:00,58.5,56.5,29.98,South,176,2.0,9.0,93,0.00,,,0.00,meteohub,2013-05-07 05:22:00,
2013-05-07 01:27:00,58.5,56.5,29.98,SE,127,2.0,9.0,93,0.00,,,0.00,meteohub,2013-05-07 05:27:00,
2013-05-07 01:32:00,58.5,56.7,29.98,NNE,20,6.0,9.0,94,0.00,,,0.00,meteohub,2013-05-07 05:32:00,
2013-05-07 01:37:00,58.3,56.5,29.98,NE,40,2.0,7.0,94,0.00,,,0.00,meteohub,2013-05-07 05:37:00,
2013-05-07 01:42:00,58.3,56.5,29.97,NNE,13,1.0,7.0,94,0.00,,,0.00,meteohub,2013-05-07 05:42:00,
2013-05-07 01:47:00,58.3,56.5,29.97,North,350,1.0,8.0,94,0.00,,,0.00,meteohub,2013-05-07 05:47:00,
2013-05-07 01:52:00,58.3,56.5,29.97,NE,47,2.0,8.0,94,0.00,,,0.00,meteohub,2013-05-07 05:52:00,
2013-05-07 01:57:00,58.3,56.5,29.97,ENE,75,1.0,8.0,94,0.00,,,0.00,meteohub,2013-05-07 05:57:00,
2013-05-07 02:02:00,58.3,56.5,29.97,ENE,65,1.0,6.0,94,0.00,,,0.00,meteohub,2013-05-07 06:02:00,
2013-05-07 02:07:00,58.3,56.5,29.96,NE,51,2.0,6.0,94,0.00,,,0.00,meteohub,2013-05-07 06:07:00,
2013-05-07 02:12:00,58.3,56.5,29.96,ESE,114,0.0,8.0,94,0.00,,,0.00,meteohub,2013-05-07 06:12:00,
2013-05-07 02:17:00,58.3,56.5,29.96,NE,46,2.0,8.0,94,0.00,,,0.00,meteohub,2013-05-07 06:17:00,
2013-05-07 02:22:00,58.3,56.5,29.96,SSW,197,0.0,8.0,94,0.00,,,0.00,meteohub,2013-05-07 06:22:00,
2013-05-07 02:27:00,58.3,56.5,29.96,ENE,73,1.0,7.0,94,0.00,,,0.00,meteohub,2013-05-07 06:27:00,
2013-05-07 02:32:00,58.5,57.0,29.96,West,278,1.0,7.0,95,0.00,,,0.00,meteohub,2013-05-07 06:32:00,
2013-05-07 02:37:00,58.5,57.0,29.96,NE,44,5.0,7.0,95,0.00,,,0.00,meteohub,2013-05-07 06:37:00,
2013-05-07 02:42:00,58.5,57.0,29.95,NE,48,1.0,5.0,95,0.00,,,0.00,meteohub,2013-05-07 06:42:00,
2013-05-07 02:47:00,58.5,57.0,29.95,SE,124,3.0,8.0,95,0.00,,,0.00,meteohub,2013-05-07 06:47:00,
2013-05-07 02:52:00,58.5,57.0,29.95,WNW,290,0.0,9.0,95,0.00,,,0.00,meteohub,2013-05-07 06:52:00,
2013-05-07 02:57:00,58.5,57.0,29.95,NNE,32,0.0,9.0,95,0.00,,,0.00,meteohub,2013-05-07 06:57:00,
2013-05-07 03:02:00,58.5,57.0,29.95,SE,128,0.0,9.0,95,0.00,,,0.00,meteohub,2013-05-07 07:02:00,
2013-05-07 03:08:00,58.5,57.0,29.94,NNE,20,4.0,7.0,95,0.00,,,0.00,meteohub,2013-05-07 07:08:00,
2013-05-07 03:13:00,58.5,57.0,29.94,NE,48,2.0,7.0,95,0.00,,,0.00,meteohub,2013-05-07 07:13:00,
2013-05-07 03:18:00,58.6,57.2,29.94,North,1,0.0,6.0,95,0.00,,,0.00,meteohub,2013-05-07 07:18:00,
2013-05-07 03:23:00,58.6,57.2,29.94,NE,56,1.0,6.0,95,0.00,,,0.00,meteohub,2013-05-07 07:23:00,
2013-05-07 03:28:00,58.6,57.2,29.94,NNE,16,0.0,8.0,95,0.00,,,0.00,meteohub,2013-05-07 07:28:00,
2013-05-07 03:33:00,58.6,57.2,29.94,NNE,28,5.0,8.0,95,0.00,,,0.00,meteohub,2013-05-07 07:33:00,
2013-05-07 03:38:00,58.6,57.2,29.94,NNE,17,11.0,11.0,95,0.00,,,0.00,meteohub,2013-05-07 07:38:00,
2013-05-07 03:43:00,58.6,57.2,29.94,NNE,22,4.0,13.0,95,0.00,,,0.00,meteohub,2013-05-07 07:43:00,
2013-05-07 03:48:00,58.6,57.2,29.94,ENE,63,0.0,13.0,95,0.00,,,0.00,meteohub,2013-05-07 07:48:00,
2013-05-07 03:53:00,58.6,57.2,29.95,SSE,166,1.0,13.0,95,0.00,,,0.00,meteohub,2013-05-07 07:53:00,
2013-05-07 03:58:00,58.6,57.2,29.95,WSW,248,1.0,7.0,95,0.00,,,0.00,meteohub,2013-05-07 07:58:00,
2013-05-07 04:03:00,58.6,57.2,29.94,NNW,329,3.0,12.0,95,0.00,,,0.00,meteohub,2013-05-07 08:03:00,
2013-05-07 04:08:00,58.6,57.2,29.94,ENE,71,0.0,12.0,95,0.00,,,0.00,meteohub,2013-05-07 08:08:00,
2013-05-07 04:13:00,58.6,57.2,29.94,North,1,0.0,12.0,95,0.00,,,0.00,meteohub,2013-05-07 08:13:00,
2013-05-07 04:18:00,58.6,56.8,29.94,North,349,0.0,6.0,94,0.00,,,0.00,meteohub,2013-05-07 08:18:00,
2013-05-07 04:23:00,58.6,56.8,29.94,NNE,32,4.0,6.0,94,0.00,,,0.00,meteohub,2013-05-07 08:23:00,
2013-05-07 04:28:00,58.6,57.2,29.94,North,8,4.0,7.0,95,0.00,,,0.00,meteohub,2013-05-07 08:28:00,
2013-05-07 04:33:00,58.6,57.2,29.94,NE,48,4.0,8.0,95,0.00,,,0.00,meteohub,2013-05-07 08:33:00,
2013-05-07 04:38:00,58.6,57.2,29.94,NNE,33,0.0,10.0,95,0.00,,,0.00,meteohub,2013-05-07 08:38:00,
2013-05-07 04:43:00,58.6,57.2,29.94,NNE,23,2.0,10.0,95,0.00,,,0.00,meteohub,2013-05-07 08:43:00,
2013-05-07 04:48:00,58.6,57.2,29.94,ESE,113,2.0,10.0,95,0.00,,,0.00,meteohub,2013-05-07 08:48:00,
2013-05-07 04:53:00,58.6,57.2,29.94,NE,35,1.0,9.0,95,0.00,,,0.00,meteohub,2013-05-07 08:53:00,
2013-05-07 04:58:00,58.6,57.2,29.94,SE,131,1.0,8.0,95,0.00,,,0.00,meteohub,2013-05-07 08:58:00,
2013-05-07 05:03:00,58.6,57.2,29.94,NE,48,1.0,8.0,95,0.00,,,0.00,meteohub,2013-05-07 09:03:00,
2013-05-07 05:08:00,58.6,56.8,29.94,SE,134,0.0,6.0,94,0.00,,,0.00,meteohub,2013-05-07 09:08:00,
2013-05-07 05:13:00,58.8,57.0,29.94,NE,56,7.0,7.0,94,0.00,,,0.00,meteohub,2013-05-07 09:13:00,
2013-05-07 05:18:00,58.8,57.0,29.94,SSE,159,2.0,7.0,94,0.00,,,0.00,meteohub,2013-05-07 09:18:00,
2013-05-07 05:23:00,58.8,57.0,29.94,NNE,16,1.0,7.0,94,0.00,,,0.00,meteohub,2013-05-07 09:23:00,
2013-05-07 05:28:00,58.8,57.0,29.94,NNE,33,2.0,7.0,94,0.00,,,0.00,meteohub,2013-05-07 09:28:00,
2013-05-07 05:33:00,58.8,57.0,29.94,NE,43,4.0,6.0,94,0.00,,,0.00,meteohub,2013-05-07 09:33:00,
2013-05-07 05:38:00,58.8,57.0,29.94,NE,51,0.0,6.0,94,0.00,,,0.00,meteohub,2013-05-07 09:38:00,
2013-05-07 05:43:00,58.8,57.0,29.94,NNE,32,2.0,10.0,94,0.00,,,0.00,meteohub,2013-05-07 09:43:00,
2013-05-07 05:48:00,58.8,57.0,29.94,NNE,23,0.0,10.0,94,0.00,,,0.00,meteohub,2013-05-07 09:48:00,
2013-05-07 05:54:00,58.8,57.0,29.94,NE,42,2.0,10.0,94,0.00,,,0.00,meteohub,2013-05-07 09:54:00,
2013-05-07 05:59:00,58.8,57.0,29.94,NNE,13,4.0,7.0,94,0.00,,,0.00,meteohub,2013-05-07 09:59:00,
2013-05-07 06:04:00,58.8,57.0,29.94,NNE,27,2.0,8.0,94,0.00,,,0.00,meteohub,2013-05-07 10:04:00,
2013-05-07 06:09:00,58.8,57.4,29.94,SE,128,0.0,8.0,95,0.00,,,0.00,meteohub,2013-05-07 10:09:00,
2013-05-07 06:14:00,58.8,57.4,29.94,NW,311,1.0,10.0,95,0.00,,,0.00,meteohub,2013-05-07 10:14:00,
2013-05-07 06:19:00,58.8,57.4,29.94,NE,36,2.0,10.0,95,0.00,,,0.00,meteohub,2013-05-07 10:19:00,
2013-05-07 06:24:00,59.0,57.6,29.94,SW,228,0.0,8.0,95,0.00,,,0.00,meteohub,2013-05-07 10:24:00,
2013-05-07 06:29:00,59.0,57.6,29.94,NE,40,3.0,8.0,95,0.00,,,0.00,meteohub,2013-05-07 10:29:00,
2013-05-07 06:34:00,59.2,57.7,29.94,NNW,342,1.0,8.0,95,0.00,,,0.00,meteohub,2013-05-07 10:34:00,
2013-05-07 06:39:00,59.2,57.4,29.94,ENE,63,5.0,9.0,94,0.00,,,0.00,meteohub,2013-05-07 10:39:00,
2013-05-07 06:44:00,59.2,57.4,29.94,ENE,73,1.0,9.0,94,0.00,,,0.00,meteohub,2013-05-07 10:44:00,
2013-05-07 06:49:00,59.4,57.6,29.94,NE,51,7.0,9.0,94,0.00,,,0.00,meteohub,2013-05-07 10:49:00,
2013-05-07 06:54:00,59.4,57.6,29.94,ENE,75,2.0,9.0,94,0.00,,,0.00,meteohub,2013-05-07 10:54:00,
2013-05-07 06:59:00,59.4,57.6,29.95,NE,41,0.0,9.0,94,0.00,,,0.00,meteohub,2013-05-07 10:59:00,
2013-05-07 07:04:00,59.5,57.6,29.95,NE,44,4.0,9.0,93,0.00,,,0.00,meteohub,2013-05-07 11:04:00,
2013-05-07 07:09:00,59.5,57.6,29.94,WNW,288,0.0,6.0,93,0.00,,,0.00,meteohub,2013-05-07 11:09:00,
2013-05-07 07:14:00,59.5,57.6,29.94,NE,34,3.0,5.0,93,0.00,,,0.00,meteohub,2013-05-07 11:14:00,
2013-05-07 07:19:00,59.5,57.6,29.94,NE,35,3.0,8.0,93,0.00,,,0.00,meteohub,2013-05-07 11:19:00,
2013-05-07 07:24:00,59.5,57.6,29.94,NNE,25,3.0,8.0,93,0.00,,,0.00,meteohub,2013-05-07 11:24:00,
2013-05-07 07:30:00,59.5,57.6,29.94,ESE,110,2.0,9.0,93,0.00,,,0.00,meteohub,2013-05-07 11:30:00,
2013-05-07 07:35:00,59.5,57.6,29.94,NNE,30,4.0,13.0,93,0.00,,,0.00,meteohub,2013-05-07 11:35:00,
2013-05-07 07:40:00,59.7,57.7,29.94,NE,48,1.0,13.0,93,0.00,,,0.00,meteohub,2013-05-07 11:40:00,
2013-05-07 07:45:00,59.7,57.7,29.94,ENE,58,2.0,13.0,93,0.00,,,0.00,meteohub,2013-05-07 11:45:00,
2013-05-07 07:50:00,59.7,57.7,29.95,NNE,30,3.0,11.0,93,0.00,,,0.00,meteohub,2013-05-07 11:50:00,
2013-05-07 07:55:00,59.7,57.7,29.95,SE,139,0.0,8.0,93,0.00,,,0.00,meteohub,2013-05-07 11:55:00,
2013-05-07 08:00:00,59.7,57.7,29.95,ENE,72,2.0,8.0,93,0.00,,,0.00,meteohub,2013-05-07 12:00:00,
2013-05-07 08:05:00,59.7,57.7,29.95,ESE,118,0.0,8.0,93,0.00,,,0.00,meteohub,2013-05-07 12:05:00,
2013-05-07 08:10:00,59.7,57.7,29.95,ESE,103,1.0,8.0,93,0.00,,,0.00,meteohub,2013-05-07 12:10:00,
2013-05-07 08:15:00,59.5,57.6,29.95,NNE,18,1.0,6.0,93,0.00,,,0.00,meteohub,2013-05-07 12:15:00,
2013-05-07 08:20:00,59.7,57.7,29.95,NNW,348,2.0,6.0,93,0.00,,,0.00,meteohub,2013-05-07 12:20:00,
2013-05-07 08:25:00,59.5,57.6,29.95,North,9,1.0,7.0,93,0.00,,,0.00,meteohub,2013-05-07 12:25:00,
2013-05-07 08:30:00,59.5,57.6,29.96,ESE,105,0.0,7.0,93,0.00,,,0.00,meteohub,2013-05-07 12:30:00,
2013-05-07 08:35:00,59.5,57.6,29.96,East,84,1.0,7.0,93,0.00,,,0.00,meteohub,2013-05-07 12:35:00,
2013-05-07 08:40:00,59.5,57.7,29.96,NE,54,0.0,8.0,94,0.01,,,0.01,meteohub,2013-05-07 12:40:00,
2013-05-07 08:45:00,59.5,57.7,29.96,NE,47,5.0,8.0,94,0.01,,,0.01,meteohub,2013-05-07 12:45:00,
2013-05-07 08:50:00,59.4,57.4,29.96,ENE,75,1.0,8.0,93,0.01,,,0.01,meteohub,2013-05-07 12:50:00,
2013-05-07 08:55:00,59.4,57.4,29.96,East,100,3.0,8.0,93,0.01,,,0.01,meteohub,2013-05-07 12:55:00,
2013-05-07 09:00:00,59.4,57.4,29.97,NNE,19,4.0,9.0,93,0.02,,,0.02,meteohub,2013-05-07 13:00:00,
2013-05-07 09:05:00,59.4,57.6,29.97,NNE,32,2.0,9.0,94,0.03,,,0.03,meteohub,2013-05-07 13:05:00,
2013-05-07 09:10:00,59.2,57.4,29.97,NE,47,2.0,10.0,94,0.04,,,0.04,meteohub,2013-05-07 13:10:00,
2013-05-07 09:15:00,59.4,57.6,29.97,NE,45,0.0,10.0,94,0.06,,,0.06,meteohub,2013-05-07 13:15:00,
2013-05-07 09:20:00,59.2,57.4,29.97,WSW,240,0.0,10.0,94,0.08,,,0.07,meteohub,2013-05-07 13:20:00,
2013-05-07 09:26:00,59.2,57.4,29.97,NE,41,0.0,6.0,94,0.09,,,0.09,meteohub,2013-05-07 13:26:00,
2013-05-07 09:31:00,59.0,57.2,29.97,SSE,155,0.0,5.0,94,0.11,,,0.11,meteohub,2013-05-07 13:31:00,
2013-05-07 09:36:00,59.2,57.4,29.97,NNE,23,4.0,5.0,94,0.12,,,0.12,meteohub,2013-05-07 13:36:00,
2013-05-07 09:41:00,59.2,57.4,29.97,NE,44,1.0,9.0,94,0.12,,,0.13,meteohub,2013-05-07 13:41:00,
2013-05-07 09:46:00,59.2,57.4,29.97,SSW,210,0.0,9.0,94,0.13,,,0.14,meteohub,2013-05-07 13:46:00,
2013-05-07 09:51:00,59.2,57.4,29.96,ENE,58,1.0,6.0,94,0.13,,,0.14,meteohub,2013-05-07 13:51:00,
2013-05-07 09:56:00,59.2,57.4,29.96,ENE,63,0.0,6.0,94,0.13,,,0.15,meteohub,2013-05-07 13:56:00,
2013-05-07 10:01:00,59.2,57.4,29.96,NE,48,0.0,6.0,94,0.13,,,0.15,meteohub,2013-05-07 14:01:00,
2013-05-07 10:06:00,59.2,57.4,29.96,NE,40,5.0,6.0,94,0.12,,,0.15,meteohub,2013-05-07 14:06:00,
2013-05-07 10:11:00,59.2,57.4,29.96,NE,42,3.0,8.0,94,0.12,,,0.17,meteohub,2013-05-07 14:11:00,
2013-05-07 10:16:00,59.2,57.4,29.96,ENE,63,3.0,8.0,94,0.14,,,0.19,meteohub,2013-05-07 14:16:00,
2013-05-07 10:21:00,59.0,57.2,29.96,NNW,342,3.0,8.0,94,0.13,,,0.21,meteohub,2013-05-07 14:21:00,
2013-05-07 10:26:00,59.0,57.2,29.95,NE,48,2.0,10.0,94,0.11,,,0.21,meteohub,2013-05-07 14:26:00,
2013-05-07 10:31:00,59.2,57.4,29.95,NE,37,6.0,10.0,94,0.10,,,0.21,meteohub,2013-05-07 14:31:00,
2013-05-07 10:36:00,59.2,57.4,29.95,ENE,60,5.0,10.0,94,0.11,,,0.23,meteohub,2013-05-07 14:36:00,
2013-05-07 10:41:00,59.2,57.4,29.95,NNE,27,9.0,12.0,94,0.12,,,0.25,meteohub,2013-05-07 14:41:00,
2013-05-07 10:46:00,59.2,57.4,29.95,NE,44,6.0,12.0,94,0.14,,,0.28,meteohub,2013-05-07 14:46:00,
2013-05-07 10:51:00,59.2,57.7,29.96,East,79,5.0,12.0,95,0.17,,,0.32,meteohub,2013-05-07 14:51:00,
2013-05-07 10:56:00,59.2,57.7,29.96,ENE,61,1.0,11.0,95,0.19,,,0.34,meteohub,2013-05-07 14:56:00,
2013-05-07 11:01:00,59.4,57.9,29.96,ENE,77,0.0,11.0,95,0.22,,,0.37,meteohub,2013-05-07 15:01:00,
2013-05-07 11:06:00,59.5,58.1,29.96,NE,34,3.0,10.0,95,0.22,,,0.38,meteohub,2013-05-07 15:06:00,
2013-05-07 11:11:00,59.5,58.1,29.95,NW,322,0.0,6.0,95,0.20,,,0.38,meteohub,2013-05-07 15:11:00,
2013-05-07 11:16:00,59.7,58.3,29.95,ENE,63,5.0,6.0,95,0.19,,,0.39,meteohub,2013-05-07 15:16:00,
2013-05-07 11:21:00,59.7,58.3,29.95,North,350,0.0,8.0,95,0.18,,,0.39,meteohub,2013-05-07 15:21:00,
2013-05-07 11:26:00,59.9,58.1,29.95,NNE,32,2.0,8.0,94,0.18,,,0.39,meteohub,2013-05-07 15:26:00,
2013-05-07 11:32:00,59.9,58.1,29.95,NE,56,3.0,8.0,94,0.19,,,0.41,meteohub,2013-05-07 15:32:00,
2013-05-07 11:37:00,59.9,58.5,29.95,East,80,3.0,9.0,95,0.21,,,0.44,meteohub,2013-05-07 15:37:00,
2013-05-07 11:42:00,60.1,58.3,29.95,NNW,346,2.0,9.0,94,0.19,,,0.45,meteohub,2013-05-07 15:42:00,
2013-05-07 11:47:00,59.9,58.5,29.94,NE,56,4.0,9.0,95,0.21,,,0.50,meteohub,2013-05-07 15:47:00,
2013-05-07 11:52:00,60.1,58.6,29.94,ESE,111,1.0,8.0,95,0.20,,,0.53,meteohub,2013-05-07 15:52:00,
2013-05-07 11:57:00,60.1,58.6,29.94,NE,37,1.0,8.0,95,0.18,,,0.53,meteohub,2013-05-07 15:57:00,
2013-05-07 12:02:00,60.3,58.8,29.94,NNE,20,1.0,6.0,95,0.16,,,0.53,meteohub,2013-05-07 16:02:00,
2013-05-07 12:07:00,60.3,58.8,29.94,WNW,287,3.0,5.0,95,0.15,,,0.53,meteohub,2013-05-07 16:07:00,
2013-05-07 12:12:00,60.3,58.8,29.94,NE,56,4.0,5.0,95,0.15,,,0.53,meteohub,2013-05-07 16:12:00,
2013-05-07 12:17:00,60.4,58.6,29.94,NNE,23,2.0,5.0,94,0.14,,,0.53,meteohub,2013-05-07 16:17:00,
2013-05-07 12:22:00,60.4,58.6,29.94,North,8,1.0,9.0,94,0.14,,,0.53,meteohub,2013-05-07 16:22:00,
2013-05-07 12:27:00,60.8,59.4,29.94,WSW,237,1.0,9.0,95,0.14,,,0.53,meteohub,2013-05-07 16:27:00,
2013-05-07 12:32:00,61.0,59.2,29.93,NE,43,0.0,9.0,94,0.12,,,0.53,meteohub,2013-05-07 16:32:00,
2013-05-07 12:37:00,61.2,59.4,29.93,NE,43,4.0,6.0,94,0.09,,,0.53,meteohub,2013-05-07 16:37:00,
2013-05-07 12:42:00,61.2,59.4,29.93,WNW,283,0.0,6.0,94,0.07,,,0.53,meteohub,2013-05-07 16:42:00,
2013-05-07 12:47:00,61.3,59.5,29.93,NNE,13,3.0,10.0,94,0.02,,,0.53,meteohub,2013-05-07 16:47:00,
2013-05-07 12:52:00,61.3,59.5,29.93,North,9,0.0,10.0,94,0.00,,,0.53,meteohub,2013-05-07 16:52:00,
2013-05-07 12:57:00,61.3,59.4,29.93,NE,40,4.0,8.0,93,0.00,,,0.53,meteohub,2013-05-07 16:57:00,
2013-05-07 13:02:00,61.5,59.5,29.93,ENE,77,1.0,9.0,93,0.00,,,0.53,meteohub,2013-05-07 17:02:00,
2013-05-07 13:07:00,61.5,59.5,29.93,East,98,0.0,9.0,93,0.00,,,0.53,meteohub,2013-05-07 17:07:00,
2013-05-07 13:12:00,61.9,59.9,29.93,ENE,72,0.0,8.0,93,0.00,,,0.53,meteohub,2013-05-07 17:12:00,
2013-05-07 13:17:00,61.9,59.9,29.92,NE,53,5.0,14.0,93,0.00,,,0.53,meteohub,2013-05-07 17:17:00,
2013-05-07 13:22:00,61.9,59.9,29.92,NE,35,4.0,14.0,93,0.00,,,0.53,meteohub,2013-05-07 17:22:00,
2013-05-07 13:27:00,61.9,59.9,29.92,NE,41,4.0,14.0,93,0.00,,,0.53,meteohub,2013-05-07 17:27:00,
2013-05-07 13:32:00,62.1,60.1,29.92,NE,49,7.0,10.0,93,0.00,,,0.53,meteohub,2013-05-07 17:32:00,
2013-05-07 13:37:00,62.1,60.1,29.92,NNW,335,0.0,10.0,93,0.02,,,0.55,meteohub,2013-05-07 17:37:00,
2013-05-07 13:42:00,62.1,60.1,29.92,NE,48,2.0,9.0,93,0.04,,,0.57,meteohub,2013-05-07 17:42:00,
2013-05-07 13:47:00,62.1,60.1,29.92,East,84,2.0,9.0,93,0.04,,,0.57,meteohub,2013-05-07 17:47:00,
2013-05-07 13:52:00,62.1,60.1,29.92,NNE,20,5.0,8.0,93,0.06,,,0.59,meteohub,2013-05-07 17:52:00,
2013-05-07 13:57:00,62.1,60.1,29.92,NE,56,1.0,9.0,93,0.07,,,0.60,meteohub,2013-05-07 17:57:00,
2013-05-07 14:02:00,62.1,60.3,29.92,WSW,248,1.0,9.0,94,0.07,,,0.60,meteohub,2013-05-07 18:02:00,
2013-05-07 14:07:00,61.9,59.9,29.91,ENE,60,7.0,9.0,93,0.07,,,0.60,meteohub,2013-05-07 18:07:00,
2013-05-07 14:12:00,61.9,59.9,29.92,NNE,16,2.0,11.0,93,0.08,,,0.61,meteohub,2013-05-07 18:12:00,
2013-05-07 14:17:00,61.9,60.1,29.91,NE,40,7.0,11.0,94,0.08,,,0.61,meteohub,2013-05-07 18:17:00,
2013-05-07 14:22:00,61.9,60.1,29.91,NE,37,2.0,10.0,94,0.08,,,0.61,meteohub,2013-05-07 18:22:00,
2013-05-07 14:27:00,61.9,60.1,29.91,NNE,22,5.0,12.0,94,0.10,,,0.61,meteohub,2013-05-07 18:27:00,
2013-05-07 14:32:00,62.1,60.3,29.91,WNW,301,1.0,12.0,94,0.14,,,0.67,meteohub,2013-05-07 18:32:00,
2013-05-07 14:36:00,62.1,60.3,29.91,SW,223,1.0,12.0,94,0.11,,,0.68,meteohub,2013-05-07 18:36:00,
2013-05-07 14:42:00,62.2,60.4,29.91,NNE,15,1.0,12.0,94,0.11,,,0.68,meteohub,2013-05-07 18:42:00,
2013-05-07 14:47:00,62.2,60.4,29.91,East,101,3.0,8.0,94,0.11,,,0.68,meteohub,2013-05-07 18:47:00,
2013-05-07 14:52:00,62.2,60.4,29.90,East,91,1.0,8.0,94,0.09,,,0.68,meteohub,2013-05-07 18:52:00,
2013-05-07 14:57:00,62.2,60.4,29.90,ESE,122,1.0,8.0,94,0.08,,,0.68,meteohub,2013-05-07 18:57:00,
2013-05-07 15:02:00,62.4,60.6,29.90,North,350,0.0,8.0,94,0.08,,,0.68,meteohub,2013-05-07 19:02:00,
2013-05-07 15:07:00,62.4,60.6,29.90,ENE,61,4.0,8.0,94,0.07,,,0.68,meteohub,2013-05-07 19:07:00,
2013-05-07 15:12:00,62.4,60.6,29.90,East,87,1.0,9.0,94,0.07,,,0.68,meteohub,2013-05-07 19:12:00,
2013-05-07 15:17:00,62.4,60.6,29.90,NW,314,0.0,9.0,94,0.07,,,0.68,meteohub,2013-05-07 19:17:00,
2013-05-07 15:22:00,62.4,60.6,29.89,NE,40,2.0,9.0,94,0.07,,,0.68,meteohub,2013-05-07 19:22:00,
2013-05-07 15:27:00,62.8,61.0,29.89,SSE,155,0.0,7.0,94,0.05,,,0.68,meteohub,2013-05-07 19:27:00,
2013-05-07 15:32:00,63.0,61.2,29.89,WNW,283,0.0,7.0,94,0.01,,,0.69,meteohub,2013-05-07 19:32:00,
2013-05-07 15:37:00,63.0,61.2,29.89,NNE,32,1.0,7.0,94,0.01,,,0.69,meteohub,2013-05-07 19:37:00,
2013-05-07 15:42:00,63.0,61.2,29.89,NE,48,1.0,9.0,94,0.01,,,0.69,meteohub,2013-05-07 19:42:00,
2013-05-07 15:47:00,63.0,61.2,29.89,SE,145,2.0,9.0,94,0.01,,,0.69,meteohub,2013-05-07 19:47:00,
2013-05-07 15:52:00,63.1,61.3,29.88,NNE,28,7.0,10.0,94,0.01,,,0.69,meteohub,2013-05-07 19:52:00,
2013-05-07 15:57:00,63.0,61.2,29.88,ESE,122,0.0,10.0,94,0.03,,,0.71,meteohub,2013-05-07 19:57:00,
2013-05-07 16:02:00,63.0,61.2,29.88,SSE,156,2.0,10.0,94,0.06,,,0.74,meteohub,2013-05-07 20:02:00,
2013-05-07 16:07:00,63.0,61.2,29.88,ENE,72,3.0,8.0,94,0.06,,,0.74,meteohub,2013-05-07 20:07:00,
2013-05-07 16:12:00,63.1,61.3,29.88,SSE,152,8.0,10.0,94,0.06,,,0.74,meteohub,2013-05-07 20:12:00,
2013-05-07 16:17:00,63.1,61.3,29.88,NNE,32,2.0,10.0,94,0.07,,,0.75,meteohub,2013-05-07 20:17:00,
2013-05-07 16:22:00,63.3,61.5,29.88,NNE,20,5.0,10.0,94,0.07,,,0.75,meteohub,2013-05-07 20:22:00,
2013-05-07 16:27:00,63.3,61.5,29.88,NE,46,2.0,10.0,94,0.07,,,0.75,meteohub,2013-05-07 20:27:00,
2013-05-07 16:32:00,63.3,61.5,29.87,ENE,76,2.0,10.0,94,0.06,,,0.75,meteohub,2013-05-07 20:32:00,
2013-05-07 16:37:00,63.3,61.5,29.87,SSE,164,1.0,8.0,94,0.06,,,0.75,meteohub,2013-05-07 20:37:00,
2013-05-07 16:42:00,63.3,61.5,29.87,ENE,68,0.0,8.0,94,0.06,,,0.75,meteohub,2013-05-07 20:42:00,
2013-05-07 16:47:00,63.5,61.7,29.87,SSE,159,4.0,7.0,94,0.06,,,0.75,meteohub,2013-05-07 20:47:00,
2013-05-07 16:52:00,63.5,61.7,29.87,NNW,343,1.0,6.0,94,0.06,,,0.75,meteohub,2013-05-07 20:52:00,
2013-05-07 16:57:00,63.5,61.7,29.87,NE,56,2.0,6.0,94,0.02,,,0.75,meteohub,2013-05-07 20:57:00,
2013-05-07 17:02:00,63.5,61.5,29.87,ENE,77,3.0,10.0,93,0.01,,,0.75,meteohub,2013-05-07 21:02:00,
2013-05-07 17:07:00,63.5,61.5,29.87,ENE,63,5.0,10.0,93,0.01,,,0.75,meteohub,2013-05-07 21:07:00,
2013-05-07 17:12:00,63.3,61.3,29.87,North,8,2.0,12.0,93,0.00,,,0.75,meteohub,2013-05-07 21:12:00,
2013-05-07 17:17:00,63.5,61.5,29.87,South,172,0.0,12.0,93,0.00,,,0.75,meteohub,2013-05-07 21:17:00,
2013-05-07 17:22:00,63.7,61.7,29.86,East,89,7.0,12.0,93,0.00,,,0.75,meteohub,2013-05-07 21:22:00,
2013-05-07 17:27:00,63.7,61.7,29.86,SW,232,1.0,10.0,93,0.00,,,0.75,meteohub,2013-05-07 21:27:00,
2013-05-07 17:32:00,63.9,61.9,29.86,ENE,75,3.0,9.0,93,0.00,,,0.75,meteohub,2013-05-07 21:32:00,
2013-05-07 17:37:00,63.9,61.5,29.86,NNE,16,4.0,9.0,92,0.00,,,0.75,meteohub,2013-05-07 21:37:00,
2013-05-07 17:42:00,63.9,61.2,29.86,NNE,32,2.0,9.0,91,0.00,,,0.75,meteohub,2013-05-07 21:42:00,
2013-05-07 17:47:00,63.7,61.3,29.86,ENE,72,2.0,9.0,92,0.00,,,0.75,meteohub,2013-05-07 21:47:00,
2013-05-07 17:52:00,63.7,61.3,29.86,East,80,3.0,12.0,92,0.00,,,0.75,meteohub,2013-05-07 21:52:00,
2013-05-07 17:57:00,63.5,60.8,29.86,SSE,152,2.0,12.0,91,0.00,,,0.75,meteohub,2013-05-07 21:57:00,
2013-05-07 18:02:00,63.7,61.0,29.87,ENE,58,3.0,10.0,91,0.00,,,0.75,meteohub,2013-05-07 22:02:00,
2013-05-07 18:07:00,63.7,61.0,29.87,NNE,32,6.0,10.0,91,0.00,,,0.75,meteohub,2013-05-07 22:07:00,
2013-05-07 18:12:00,63.7,61.0,29.87,ESE,121,2.0,8.0,91,0.00,,,0.75,meteohub,2013-05-07 22:12:00,
2013-05-07 18:17:00,63.5,60.4,29.88,NNW,347,4.0,8.0,90,0.00,,,0.75,meteohub,2013-05-07 22:17:00,
2013-05-07 18:22:00,63.5,60.4,29.88,NW,316,3.0,11.0,90,0.00,,,0.75,meteohub,2013-05-07 22:22:00,
2013-05-07 18:27:00,63.5,60.4,29.87,NNW,340,4.0,11.0,90,0.00,,,0.75,meteohub,2013-05-07 22:27:00,
2013-05-07 18:32:00,63.5,60.8,29.87,East,93,3.0,11.0,91,0.00,,,0.75,meteohub,2013-05-07 22:32:00,
2013-05-07 18:37:00,63.5,60.4,29.87,SE,129,1.0,7.0,90,0.00,,,0.75,meteohub,2013-05-07 22:37:00,
2013-05-07 18:42:00,63.5,60.4,29.86,ESE,102,2.0,8.0,90,0.00,,,0.75,meteohub,2013-05-07 22:42:00,
2013-05-07 18:47:00,63.5,60.4,29.87,ESE,120,1.0,9.0,90,0.00,,,0.75,meteohub,2013-05-07 22:47:00,
2013-05-07 18:52:00,63.7,60.6,29.86,East,93,2.0,9.0,90,0.00,,,0.75,meteohub,2013-05-07 22:52:00,
2013-05-07 18:57:00,63.7,60.6,29.87,East,79,2.0,7.0,90,0.00,,,0.75,meteohub,2013-05-07 22:57:00,
2013-05-07 19:02:00,63.7,60.6,29.87,ESE,103,0.0,7.0,90,0.00,,,0.75,meteohub,2013-05-07 23:02:00,
2013-05-07 19:07:00,63.7,60.6,29.87,NNE,30,1.0,7.0,90,0.00,,,0.75,meteohub,2013-05-07 23:07:00,
2013-05-07 19:12:00,63.7,60.6,29.87,South,172,4.0,9.0,90,0.00,,,0.75,meteohub,2013-05-07 23:12:00,
2013-05-07 19:17:00,63.5,60.4,29.87,SSE,148,0.0,9.0,90,0.00,,,0.75,meteohub,2013-05-07 23:17:00,
2013-05-07 19:22:00,63.5,60.8,29.87,West,273,1.0,9.0,91,0.00,,,0.75,meteohub,2013-05-07 23:22:00,
2013-05-07 19:27:00,63.3,60.3,29.88,SE,141,3.0,6.0,90,0.00,,,0.75,meteohub,2013-05-07 23:27:00,
2013-05-07 19:32:00,63.3,60.3,29.88,NNW,342,4.0,6.0,90,0.00,,,0.75,meteohub,2013-05-07 23:32:00,
2013-05-07 19:37:00,63.3,60.3,29.88,NNE,22,1.0,9.0,90,0.00,,,0.75,meteohub,2013-05-07 23:37:00,
2013-05-07 19:42:00,63.3,60.3,29.88,NE,45,14.0,14.0,90,0.00,,,0.75,meteohub,2013-05-07 23:42:00,
2013-05-07 19:47:00,63.3,60.3,29.87,NE,42,0.0,14.0,90,0.00,,,0.75,meteohub,2013-05-07 23:47:00,
2013-05-07 19:51:00,63.1,60.1,29.87,SE,139,0.0,14.0,90,0.00,,,0.75,meteohub,2013-05-07 23:51:00,
2013-05-07 19:56:00,63.1,60.4,29.87,North,6,6.0,14.0,91,0.00,,,0.75,meteohub,2013-05-07 23:56:00,
2013-05-07 20:01:00,63.1,60.4,29.88,ESE,115,1.0,6.0,91,0.00,,,0.75,meteohub,2013-05-08 00:01:00,
2013-05-07 20:07:00,63.1,60.4,29.87,ESE,120,1.0,6.0,91,0.00,,,0.75,meteohub,2013-05-08 00:07:00,
2013-05-07 20:11:00,63.1,60.4,29.87,SSE,148,2.0,7.0,91,0.00,,,0.75,meteohub,2013-05-08 00:11:00,
2013-05-07 20:17:00,63.0,60.3,29.87,NW,319,2.0,7.0,91,0.00,,,0.75,meteohub,2013-05-08 00:17:00,
2013-05-07 20:22:00,63.0,60.3,29.87,West,281,3.0,7.0,91,0.00,,,0.75,meteohub,2013-05-08 00:22:00,
2013-05-07 20:27:00,63.0,60.3,29.87,SSW,193,1.0,6.0,91,0.00,,,0.75,meteohub,2013-05-08 00:27:00,
2013-05-07 20:32:00,63.0,60.3,29.87,SW,224,2.0,6.0,91,0.00,,,0.75,meteohub,2013-05-08 00:32:00,
2013-05-07 20:37:00,63.0,60.3,29.87,NE,55,2.0,7.0,91,0.00,,,0.75,meteohub,2013-05-08 00:37:00,
2013-05-07 20:42:00,62.8,60.1,29.87,NW,314,0.0,7.0,91,0.00,,,0.75,meteohub,2013-05-08 00:42:00,
2013-05-07 20:47:00,62.8,60.1,29.87,North,352,1.0,7.0,91,0.00,,,0.75,meteohub,2013-05-08 00:47:00,
2013-05-07 20:52:00,62.8,60.1,29.87,NE,49,7.0,11.0,91,0.00,,,0.75,meteohub,2013-05-08 00:52:00,
2013-05-07 20:57:00,62.8,60.1,29.87,NE,46,2.0,11.0,91,0.00,,,0.75,meteohub,2013-05-08 00:57:00,
2013-05-07 21:02:00,63.0,60.3,29.87,East,91,1.0,11.0,91,0.00,,,0.75,meteohub,2013-05-08 01:02:00,
2013-05-07 21:07:00,63.0,60.3,29.87,ENE,61,1.0,9.0,91,0.00,,,0.75,meteohub,2013-05-08 01:07:00,
2013-05-07 21:12:00,63.0,59.9,29.88,NE,48,3.0,9.0,90,0.00,,,0.75,meteohub,2013-05-08 01:12:00,
2013-05-07 21:17:00,63.0,59.9,29.87,NE,34,3.0,9.0,90,0.00,,,0.75,meteohub,2013-05-08 01:17:00,
2013-05-07 21:22:00,63.0,59.9,29.88,SE,125,1.0,12.0,90,0.00,,,0.75,meteohub,2013-05-08 01:22:00,
2013-05-07 21:27:00,63.0,59.9,29.88,West,270,2.0,12.0,90,0.00,,,0.75,meteohub,2013-05-08 01:27:00,
2013-05-07 21:32:00,63.0,59.9,29.89,ESE,104,1.0,7.0,90,0.00,,,0.75,meteohub,2013-05-08 01:32:00,
2013-05-07 21:37:00,62.8,59.7,29.89,NNE,23,3.0,8.0,90,0.00,,,0.75,meteohub,2013-05-08 01:37:00,
2013-05-07 21:42:00,62.8,59.5,29.89,ENE,70,4.0,8.0,89,0.00,,,0.75,meteohub,2013-05-08 01:42:00,
2013-05-07 21:47:00,62.8,59.5,29.89,ESE,115,1.0,8.0,89,0.00,,,0.75,meteohub,2013-05-08 01:47:00,
2013-05-07 21:52:00,62.8,59.5,29.89,SE,135,2.0,6.0,89,0.00,,,0.75,meteohub,2013-05-08 01:52:00,
2013-05-07 21:57:00,62.8,59.7,29.89,SE,135,4.0,5.0,90,0.00,,,0.75,meteohub,2013-05-08 01:57:00,
2013-05-07 22:02:00,62.6,59.5,29.89,East,96,0.0,6.0,90,0.01,,,0.76,meteohub,2013-05-08 02:02:00,
2013-05-07 22:07:00,62.4,59.4,29.89,NE,43,1.0,8.0,90,0.01,,,0.76,meteohub,2013-05-08 02:07:00,
2013-05-07 22:12:00,62.2,59.5,29.89,SE,124,1.0,8.0,91,0.01,,,0.76,meteohub,2013-05-08 02:12:00,
2013-05-07 22:17:00,62.2,59.5,29.90,SE,142,1.0,6.0,91,0.01,,,0.76,meteohub,2013-05-08 02:17:00,
2013-05-07 22:22:00,62.2,59.5,29.90,SSW,210,1.0,7.0,91,0.01,,,0.76,meteohub,2013-05-08 02:22:00,
2013-05-07 22:27:00,62.1,59.4,29.89,North,1,0.0,7.0,91,0.01,,,0.76,meteohub,2013-05-08 02:27:00,
2013-05-07 22:32:00,62.1,59.4,29.89,SE,138,1.0,8.0,91,0.01,,,0.76,meteohub,2013-05-08 02:32:00,
2013-05-07 22:37:00,62.1,59.4,29.90,SW,236,2.0,8.0,91,0.01,,,0.76,meteohub,2013-05-08 02:37:00,
2013-05-07 22:42:00,62.1,59.4,29.89,ESE,121,2.0,8.0,91,0.01,,,0.76,meteohub,2013-05-08 02:42:00,
2013-05-07 22:47:00,62.1,59.4,29.90,SSE,165,0.0,5.0,91,0.01,,,0.76,meteohub,2013-05-08 02:47:00,
2013-05-07 22:52:00,62.1,59.4,29.89,SE,136,2.0,5.0,91,0.01,,,0.76,meteohub,2013-05-08 02:52:00,
2013-05-07 22:57:00,62.1,59.4,29.89,SE,139,3.0,7.0,91,0.00,,,0.76,meteohub,2013-05-08 02:57:00,
2013-05-07 23:02:00,61.9,59.2,29.89,WSW,246,2.0,9.0,91,0.00,,,0.76,meteohub,2013-05-08 03:02:00,
2013-05-07 23:07:00,61.9,59.2,29.89,ENE,63,3.0,9.0,91,0.00,,,0.76,meteohub,2013-05-08 03:07:00,
2013-05-07 23:12:00,61.9,59.2,29.89,SE,145,1.0,8.0,91,0.00,,,0.76,meteohub,2013-05-08 03:12:00,
2013-05-07 23:17:00,61.7,59.0,29.90,SSW,195,0.0,6.0,91,0.00,,,0.76,meteohub,2013-05-08 03:17:00,
2013-05-07 23:22:00,61.7,59.0,29.90,West,267,0.0,6.0,91,0.00,,,0.76,meteohub,2013-05-08 03:22:00,
2013-05-07 23:27:00,61.7,59.0,29.90,ESE,122,5.0,6.0,91,0.00,,,0.76,meteohub,2013-05-08 03:27:00,
2013-05-07 23:32:00,61.7,59.0,29.90,SE,134,0.0,5.0,91,0.00,,,0.76,meteohub,2013-05-08 03:32:00,
2013-05-07 23:37:00,61.7,59.0,29.90,SSW,212,1.0,5.0,91,0.00,,,0.76,meteohub,2013-05-08 03:37:00,
2013-05-07 23:42:00,61.7,59.0,29.90,SSW,201,0.0,5.0,91,0.00,,,0.76,meteohub,2013-05-08 03:42:00,
2013-05-07 23:47:00,61.9,59.2,29.91,NNW,335,0.0,4.0,91,0.00,,,0.76,meteohub,2013-05-08 03:47:00,
2013-05-07 23:52:00,61.7,59.0,29.91,SSW,212,2.0,4.0,91,0.00,,,0.76,meteohub,2013-05-08 03:52:00,
2013-05-07 23:57:00,61.7,59.0,29.91,NNE,18,1.0,7.0,91,0.00,,,0.76,meteohub,2013-05-08 03:57:00,